Location: Gradaro
(45.0833°N, 10.8833°E)
Time: 23:16:39
(UTC+00:00)

FENGYUN 1C DEB - Pass Details

Date: 30 June 2021
Orbit: 744 x 851 km, 99.4° (Epoch: 27 July)

Event Time Altitude Azimuth Distance (km) Brightness Sun altitude
Exits shadow 01:10:28 16° 254° (WSW) 2,009 ? -17.3°
Maximum altitude 01:11:31 17° 268° (W) 1,957 ? -17.2°
Drops below altitude 10° 01:14:52 10° 308° (NW) 2,384 ? -16.9°
Sets 01:18:03 0° 329° (NNW) 3,297 ? -16.7°
